Time,TemperatureF,DewpointF,PressureIn,WindDirection,WindDirectionDegrees,WindSpeedMPH,WindSpeedGustMPH,Humidity,HourlyPrecipIn,Conditions,Clouds,dailyrainin,SoftwareType,DateUTC
2017-02-21 00:05:00,38.8,28.0,30.50,North,-9999,0.0,-999.0,66,-99.99,,,-99.99,,2017-02-21 05:05:00,
2017-02-21 00:10:00,39.0,28.0,30.50,North,-9999,0.0,-999.0,65,-99.99,,,-99.99,,2017-02-21 05:10:00,
2017-02-21 00:16:00,38.7,28.0,30.50,North,-9999,0.0,-999.0,65,-99.99,,,-99.99,,2017-02-21 05:16:00,
2017-02-21 00:21:00,38.4,28.0,30.50,North,-9999,0.0,-999.0,65,-99.99,,,-99.99,,2017-02-21 05:21:00,
2017-02-21 00:27:00,38.4,28.0,30.50,North,-9999,0.0,-999.0,65,-99.99,,,-99.99,,2017-02-21 05:27:00,
2017-02-21 00:32:00,38.4,28.0,30.51,North,-9999,0.0,-999.0,65,-99.99,,,-99.99,,2017-02-21 05:32:00,
2017-02-21 00:38:00,38.2,28.0,30.51,North,-9999,0.0,-999.0,66,-99.99,,,-99.99,,2017-02-21 05:38:00,
2017-02-21 00:43:00,38.2,28.0,30.50,North,-9999,0.0,-999.0,66,-99.99,,,-99.99,,2017-02-21 05:43:00,
2017-02-21 00:49:00,38.0,28.0,30.50,North,-9999,0.0,-999.0,66,-99.99,,,-99.99,,2017-02-21 05:49:00,
2017-02-21 00:54:00,38.0,28.0,30.50,North,-9999,0.0,-999.0,68,-99.99,,,-99.99,,2017-02-21 05:54:00,
2017-02-21 01:02:00,37.5,28.0,30.51,North,-9999,0.0,-999.0,69,-99.99,,,-99.99,,2017-02-21 06:02:00,
2017-02-21 01:07:00,37.2,27.0,30.51,North,-9999,0.0,-999.0,69,-99.99,,,-99.99,,2017-02-21 06:07:00,
2017-02-21 01:13:00,36.7,27.0,30.52,North,-9999,0.0,-999.0,70,-99.99,,,-99.99,,2017-02-21 06:13:00,
2017-02-21 01:18:00,36.4,27.0,30.52,North,-9999,0.0,-999.0,70,-99.99,,,-99.99,,2017-02-21 06:18:00,
2017-02-21 01:24:00,36.2,28.0,30.51,North,-9999,0.0,-999.0,73,-99.99,,,-99.99,,2017-02-21 06:24:00,
2017-02-21 01:29:00,35.9,28.0,30.51,North,-9999,0.0,-999.0,73,-99.99,,,-99.99,,2017-02-21 06:29:00,
2017-02-21 01:35:00,35.9,28.0,30.51,North,-9999,0.0,-999.0,73,-99.99,,,-99.99,,2017-02-21 06:35:00,
2017-02-21 01:40:00,35.9,28.0,30.50,North,-9999,0.0,-999.0,74,-99.99,,,-99.99,,2017-02-21 06:40:00,
2017-02-21 01:46:00,35.9,28.0,30.50,North,-9999,0.0,-999.0,74,-99.99,,,-99.99,,2017-02-21 06:46:00,
2017-02-21 01:51:00,35.9,28.0,30.50,North,-9999,0.0,-999.0,73,-99.99,,,-99.99,,2017-02-21 06:51:00,
2017-02-21 01:57:00,35.9,28.0,30.50,North,-9999,0.0,-999.0,73,-99.99,,,-99.99,,2017-02-21 06:57:00,
2017-02-21 02:02:00,35.5,27.0,30.50,North,-9999,0.0,-999.0,73,-99.99,,,-99.99,,2017-02-21 07:02:00,
2017-02-21 02:08:00,35.2,27.0,30.50,North,-9999,0.0,-999.0,73,-99.99,,,-99.99,,2017-02-21 07:08:00,
2017-02-21 02:13:00,34.9,27.0,30.50,North,-9999,0.0,-999.0,74,-99.99,,,-99.99,,2017-02-21 07:13:00,
2017-02-21 02:18:00,34.5,27.0,30.51,North,-9999,0.0,-999.0,74,-99.99,,,-99.99,,2017-02-21 07:18:00,
2017-02-21 02:24:00,34.5,27.0,30.51,North,-9999,0.0,-999.0,74,-99.99,,,-99.99,,2017-02-21 07:24:00,
2017-02-21 02:29:00,34.2,27.0,30.51,North,-9999,0.0,-999.0,75,-99.99,,,-99.99,,2017-02-21 07:29:00,
2017-02-21 02:35:00,33.7,26.0,30.51,North,-9999,0.0,-999.0,75,-99.99,,,-99.99,,2017-02-21 07:35:00,
2017-02-21 02:40:00,33.2,26.0,30.51,North,-9999,0.0,-999.0,75,-99.99,,,-99.99,,2017-02-21 07:40:00,
2017-02-21 02:46:00,33.2,26.0,30.50,North,-9999,0.0,-999.0,76,-99.99,,,-99.99,,2017-02-21 07:46:00,
2017-02-21 02:51:00,32.6,26.0,30.50,North,-9999,0.0,-999.0,78,-99.99,,,-99.99,,2017-02-21 07:51:00,
2017-02-21 02:57:00,32.5,26.0,30.49,North,-9999,0.0,-999.0,79,-99.99,,,-99.99,,2017-02-21 07:57:00,
2017-02-21 03:02:00,32.4,26.0,30.49,North,-9999,0.0,-999.0,80,-99.99,,,-99.99,,2017-02-21 08:02:00,
2017-02-21 03:07:00,31.9,26.0,30.49,North,-9999,0.0,-999.0,80,-99.99,,,-99.99,,2017-02-21 08:07:00,
2017-02-21 03:13:00,31.9,26.0,30.50,North,-9999,0.0,-999.0,80,-99.99,,,-99.99,,2017-02-21 08:13:00,
2017-02-21 03:18:00,31.7,26.0,30.49,North,-9999,0.0,-999.0,81,-99.99,,,-99.99,,2017-02-21 08:18:00,
2017-02-21 03:24:00,31.7,26.0,30.50,North,-9999,0.0,-999.0,81,-99.99,,,-99.99,,2017-02-21 08:24:00,
2017-02-21 03:29:00,31.6,26.0,30.50,North,-9999,0.0,-999.0,81,-99.99,,,-99.99,,2017-02-21 08:29:00,
2017-02-21 03:35:00,31.2,26.0,30.51,North,-9999,0.0,-999.0,81,-99.99,,,-99.99,,2017-02-21 08:35:00,
2017-02-21 03:40:00,31.1,26.0,30.51,North,-9999,0.0,-999.0,81,-99.99,,,-99.99,,2017-02-21 08:40:00,
2017-02-21 03:46:00,30.7,25.0,30.51,North,-9999,0.0,-999.0,81,-99.99,,,-99.99,,2017-02-21 08:46:00,
2017-02-21 03:51:00,30.5,26.0,30.51,North,-9999,0.0,-999.0,83,-99.99,,,-99.99,,2017-02-21 08:51:00,
2017-02-21 03:57:00,30.5,26.0,30.50,North,-9999,0.0,-999.0,83,-99.99,,,-99.99,,2017-02-21 08:57:00,
2017-02-21 04:02:00,30.3,26.0,30.50,North,-9999,0.0,-999.0,83,-99.99,,,-99.99,,2017-02-21 09:02:00,
2017-02-21 04:08:00,30.5,26.0,30.50,North,-9999,0.0,-999.0,85,-99.99,,,-99.99,,2017-02-21 09:08:00,
2017-02-21 04:13:00,30.3,26.0,30.50,North,-9999,0.0,-999.0,85,-99.99,,,-99.99,,2017-02-21 09:13:00,
2017-02-21 04:19:00,30.1,26.0,30.51,North,-9999,0.0,-999.0,85,-99.99,,,-99.99,,2017-02-21 09:19:00,
2017-02-21 04:24:00,30.0,26.0,30.51,North,-9999,0.0,-999.0,85,-99.99,,,-99.99,,2017-02-21 09:24:00,
2017-02-21 04:30:00,29.8,25.0,30.51,North,-9999,0.0,-999.0,83,-99.99,,,-99.99,,2017-02-21 09:30:00,
2017-02-21 04:35:00,29.8,25.0,30.50,North,-9999,0.0,-999.0,83,-99.99,,,-99.99,,2017-02-21 09:35:00,
2017-02-21 04:41:00,29.8,25.0,30.51,North,-9999,0.0,-999.0,85,-99.99,,,-99.99,,2017-02-21 09:41:00,
2017-02-21 04:46:00,29.8,25.0,30.50,North,-9999,0.0,-999.0,83,-99.99,,,-99.99,,2017-02-21 09:46:00,
2017-02-21 04:52:00,30.0,25.0,30.50,North,-9999,0.0,-999.0,83,-99.99,,,-99.99,,2017-02-21 09:52:00,
2017-02-21 04:57:00,30.2,25.0,30.50,North,-9999,0.0,-999.0,81,-99.99,,,-99.99,,2017-02-21 09:57:00,
2017-02-21 05:03:00,30.3,25.0,30.49,North,-9999,0.0,-999.0,81,-99.99,,,-99.99,,2017-02-21 10:03:00,
2017-02-21 05:08:00,30.3,25.0,30.50,North,-9999,0.0,-999.0,81,-99.99,,,-99.99,,2017-02-21 10:08:00,
2017-02-21 05:14:00,30.0,25.0,30.50,North,-9999,0.0,-999.0,81,-99.99,,,-99.99,,2017-02-21 10:14:00,
2017-02-21 05:19:00,30.0,24.0,30.51,North,-9999,0.0,-999.0,81,-99.99,,,-99.99,,2017-02-21 10:19:00,
2017-02-21 05:25:00,30.0,25.0,30.51,North,-9999,0.0,-999.0,81,-99.99,,,-99.99,,2017-02-21 10:25:00,
2017-02-21 05:31:00,29.8,24.0,30.51,North,-9999,0.0,-999.0,81,-99.99,,,-99.99,,2017-02-21 10:31:00,
2017-02-21 05:38:00,29.6,24.0,30.51,North,-9999,0.0,-999.0,81,-99.99,,,-99.99,,2017-02-21 10:38:00,
2017-02-21 05:44:00,29.6,25.0,30.51,North,-9999,0.0,-999.0,83,-99.99,,,-99.99,,2017-02-21 10:44:00,
2017-02-21 05:49:00,29.5,24.0,30.52,North,-9999,0.0,-999.0,83,-99.99,,,-99.99,,2017-02-21 10:49:00,
2017-02-21 05:55:00,29.4,24.0,30.52,North,-9999,0.0,-999.0,83,-99.99,,,-99.99,,2017-02-21 10:55:00,
2017-02-21 06:00:00,29.4,24.0,30.51,North,-9999,0.0,-999.0,81,-99.99,,,-99.99,,2017-02-21 11:00:00,
2017-02-21 06:05:00,29.5,24.0,30.52,North,-9999,0.0,-999.0,81,-99.99,,,-99.99,,2017-02-21 11:05:00,
2017-02-21 06:10:00,29.4,24.0,30.52,North,-9999,0.0,-999.0,81,-99.99,,,-99.99,,2017-02-21 11:10:00,
2017-02-21 06:15:00,29.2,24.0,30.52,North,-9999,0.0,-999.0,81,-99.99,,,-99.99,,2017-02-21 11:15:00,
2017-02-21 06:21:00,29.4,24.0,30.52,North,-9999,0.0,-999.0,81,-99.99,,,-99.99,,2017-02-21 11:21:00,
2017-02-21 06:26:00,29.4,24.0,30.53,North,-9999,0.0,-999.0,83,-99.99,,,-99.99,,2017-02-21 11:26:00,
2017-02-21 06:32:00,29.2,24.0,30.52,North,-9999,0.0,-999.0,83,-99.99,,,-99.99,,2017-02-21 11:32:00,
2017-02-21 06:37:00,29.5,24.0,30.52,North,-9999,0.0,-999.0,83,-99.99,,,-99.99,,2017-02-21 11:37:00,
2017-02-21 06:43:00,29.4,24.0,30.52,North,-9999,0.0,-999.0,83,-99.99,,,-99.99,,2017-02-21 11:43:00,
2017-02-21 06:49:00,29.4,24.0,30.53,North,-9999,0.0,-999.0,83,-99.99,,,-99.99,,2017-02-21 11:49:00,
2017-02-21 06:54:00,29.5,24.0,30.53,North,-9999,0.0,-999.0,83,-99.99,,,-99.99,,2017-02-21 11:54:00,
2017-02-21 06:59:00,29.6,25.0,30.53,North,-9999,0.0,-999.0,83,-99.99,,,-99.99,,2017-02-21 11:59:00,
2017-02-21 07:04:00,29.8,25.0,30.53,North,-9999,0.0,-999.0,83,-99.99,,,-99.99,,2017-02-21 12:04:00,
2017-02-21 07:10:00,29.8,25.0,30.53,North,-9999,0.0,-999.0,83,-99.99,,,-99.99,,2017-02-21 12:10:00,
2017-02-21 07:15:00,30.0,25.0,30.53,North,-9999,0.0,-999.0,83,-99.99,,,-99.99,,2017-02-21 12:15:00,
2017-02-21 07:21:00,30.5,25.0,30.53,North,-9999,0.0,-999.0,83,-99.99,,,-99.99,,2017-02-21 12:21:00,
2017-02-21 07:26:00,30.8,26.0,30.54,North,-9999,0.0,-999.0,83,-99.99,,,-99.99,,2017-02-21 12:26:00,
2017-02-21 07:29:00,31.1,26.0,30.54,North,-9999,0.0,-999.0,83,-99.99,,,-99.99,,2017-02-21 12:29:00,
2017-02-21 07:35:00,31.5,26.0,30.54,North,-9999,0.0,-999.0,83,-99.99,,,-99.99,,2017-02-21 12:35:00,
2017-02-21 07:40:00,32.2,27.0,30.54,North,-9999,0.0,-999.0,83,-99.99,,,-99.99,,2017-02-21 12:40:00,
2017-02-21 07:41:00,32.4,27.0,30.54,North,-9999,0.0,-999.0,83,-99.99,,,-99.99,,2017-02-21 12:41:00,
2017-02-21 07:47:00,33.0,27.0,30.53,North,-9999,0.0,-999.0,81,-99.99,,,-99.99,,2017-02-21 12:47:00,
2017-02-21 07:52:00,34.0,28.0,30.53,North,-9999,0.0,-999.0,80,-99.99,,,-99.99,,2017-02-21 12:52:00,
2017-02-21 07:58:00,35.0,29.0,30.53,North,-9999,0.0,-999.0,80,-99.99,,,-99.99,,2017-02-21 12:58:00,
2017-02-21 08:03:00,35.9,30.0,30.53,North,-9999,0.0,-999.0,79,-99.99,,,-99.99,,2017-02-21 13:03:00,
2017-02-21 08:09:00,37.2,30.0,30.53,North,-9999,0.0,-999.0,76,-99.99,,,-99.99,,2017-02-21 13:09:00,
2017-02-21 08:14:00,37.8,31.0,30.52,North,-9999,0.0,-999.0,76,-99.99,,,-99.99,,2017-02-21 13:14:00,
2017-02-21 08:20:00,38.2,31.0,30.52,North,-9999,0.0,-999.0,75,-99.99,,,-99.99,,2017-02-21 13:20:00,
2017-02-21 08:26:00,39.2,32.0,30.52,North,-9999,0.0,-999.0,75,-99.99,,,-99.99,,2017-02-21 13:26:00,
2017-02-21 08:31:00,40.9,34.0,30.53,North,-9999,0.0,-999.0,75,-99.99,,,-99.99,,2017-02-21 13:31:00,
2017-02-21 08:36:00,42.5,34.0,30.53,North,-9999,0.0,-999.0,73,-99.99,,,-99.99,,2017-02-21 13:36:00,
2017-02-21 08:43:00,43.2,35.0,30.53,North,-9999,3.0,-999.0,73,-99.99,,,-99.99,,2017-02-21 13:43:00,
2017-02-21 08:48:00,43.9,35.0,30.53,North,-9999,0.0,-999.0,73,-99.99,,,-99.99,,2017-02-21 13:48:00,
2017-02-21 08:53:00,44.2,35.0,30.52,North,-9999,0.0,-999.0,71,-99.99,,,-99.99,,2017-02-21 13:53:00,
2017-02-21 08:58:00,45.7,36.0,30.54,North,-9999,3.0,-999.0,70,-99.99,,,-99.99,,2017-02-21 13:58:00,
2017-02-21 09:04:00,46.1,36.0,30.53,North,-9999,1.0,-999.0,69,-99.99,,,-99.99,,2017-02-21 14:04:00,
2017-02-21 09:09:00,46.1,36.0,30.53,North,-9999,3.0,-999.0,68,-99.99,,,-99.99,,2017-02-21 14:09:00,
2017-02-21 09:15:00,46.3,35.0,30.53,North,-9999,3.0,-999.0,66,-99.99,,,-99.99,,2017-02-21 14:15:00,
2017-02-21 09:20:00,46.7,34.0,30.53,North,-9999,6.0,-999.0,63,-99.99,,,-99.99,,2017-02-21 14:20:00,
2017-02-21 09:26:00,47.5,35.0,30.53,North,-9999,4.0,-999.0,63,-99.99,,,-99.99,,2017-02-21 14:26:00,
2017-02-21 09:31:00,48.0,35.0,30.52,North,-9999,3.0,-999.0,61,-99.99,,,-99.99,,2017-02-21 14:31:00,
2017-02-21 09:36:00,49.0,36.0,30.53,North,-9999,1.0,-999.0,61,-99.99,,,-99.99,,2017-02-21 14:36:00,
2017-02-21 09:42:00,48.4,34.0,30.52,North,-9999,4.0,-999.0,59,-99.99,,,-99.99,,2017-02-21 14:42:00,
2017-02-21 09:47:00,46.9,34.0,30.52,North,-9999,6.0,-999.0,61,-99.99,,,-99.99,,2017-02-21 14:47:00,
2017-02-21 09:53:00,47.8,35.0,30.52,North,-9999,6.0,-999.0,61,-99.99,,,-99.99,,2017-02-21 14:53:00,
2017-02-21 09:59:00,48.6,34.0,30.52,North,-9999,6.0,-999.0,58,-99.99,,,-99.99,,2017-02-21 14:59:00,
2017-02-21 10:04:00,48.2,35.0,30.52,North,-9999,4.0,-999.0,61,-99.99,,,-99.99,,2017-02-21 15:04:00,
2017-02-21 10:10:00,48.4,35.0,30.52,North,-9999,1.0,-999.0,61,-99.99,,,-99.99,,2017-02-21 15:10:00,
2017-02-21 10:15:00,49.4,35.0,30.52,North,-9999,4.0,-999.0,58,-99.99,,,-99.99,,2017-02-21 15:15:00,
2017-02-21 10:20:00,50.0,35.0,30.52,North,-9999,4.0,-999.0,56,-99.99,,,-99.99,,2017-02-21 15:20:00,
2017-02-21 10:23:00,49.2,35.0,30.51,North,-9999,3.0,-999.0,59,-99.99,,,-99.99,,2017-02-21 15:23:00,
2017-02-21 10:29:00,48.8,35.0,30.52,North,-9999,8.0,-999.0,60,-99.99,,,-99.99,,2017-02-21 15:29:00,
2017-02-21 10:34:00,48.2,34.0,30.51,North,-9999,4.0,-999.0,60,-99.99,,,-99.99,,2017-02-21 15:34:00,
2017-02-21 10:39:00,49.0,35.0,30.51,North,-9999,1.0,-999.0,60,-99.99,,,-99.99,,2017-02-21 15:39:00,
2017-02-21 10:44:00,50.2,36.0,30.52,North,-9999,1.0,-999.0,60,-99.99,,,-99.99,,2017-02-21 15:44:00,
2017-02-21 10:49:00,49.6,35.0,30.52,North,-9999,4.0,-999.0,59,-99.99,,,-99.99,,2017-02-21 15:49:00,
2017-02-21 10:55:00,49.2,35.0,30.52,North,-9999,11.0,-999.0,60,-99.99,,,-99.99,,2017-02-21 15:55:00,
2017-02-21 11:00:00,49.0,35.0,30.53,North,-9999,8.0,-999.0,60,-99.99,,,-99.99,,2017-02-21 16:00:00,
2017-02-21 11:05:00,49.2,35.0,30.52,North,-9999,3.0,-999.0,60,-99.99,,,-99.99,,2017-02-21 16:05:00,
2017-02-21 11:10:00,49.7,36.0,30.53,North,-9999,1.0,-999.0,61,-99.99,,,-99.99,,2017-02-21 16:10:00,
2017-02-21 11:15:00,48.8,35.0,30.53,North,-9999,4.0,-999.0,61,-99.99,,,-99.99,,2017-02-21 16:15:00,
2017-02-21 11:21:00,48.8,35.0,30.53,North,-9999,4.0,-999.0,61,-99.99,,,-99.99,,2017-02-21 16:21:00,
2017-02-21 11:26:00,48.0,35.0,30.51,North,-9999,6.0,-999.0,61,-99.99,,,-99.99,,2017-02-21 16:26:00,
2017-02-21 11:31:00,48.4,36.0,30.51,North,-9999,3.0,-999.0,61,-99.99,,,-99.99,,2017-02-21 16:31:00,
2017-02-21 11:38:00,49.2,35.0,30.52,North,-9999,6.0,-999.0,60,-99.99,,,-99.99,,2017-02-21 16:38:00,
2017-02-21 11:43:00,48.5,35.0,30.52,North,-9999,6.0,-999.0,60,-99.99,,,-99.99,,2017-02-21 16:43:00,
2017-02-21 11:48:00,49.2,35.0,30.51,North,-9999,4.0,-999.0,60,-99.99,,,-99.99,,2017-02-21 16:48:00,
2017-02-21 11:53:00,50.1,37.0,30.51,North,-9999,1.0,-999.0,61,-99.99,,,-99.99,,2017-02-21 16:53:00,
2017-02-21 11:59:00,51.7,36.0,30.50,North,-9999,4.0,-999.0,56,-99.99,,,-99.99,,2017-02-21 16:59:00,
2017-02-21 12:04:00,50.7,36.0,30.49,North,-9999,12.0,-999.0,56,-99.99,,,-99.99,,2017-02-21 17:04:00,
2017-02-21 12:10:00,50.9,37.0,30.49,North,-9999,4.0,-999.0,59,-99.99,,,-99.99,,2017-02-21 17:10:00,
2017-02-21 12:15:00,49.4,36.0,30.49,North,-9999,4.0,-999.0,60,-99.99,,,-99.99,,2017-02-21 17:15:00,